Time,TemperatureF,DewpointF,PressureIn,WindDirection,WindDirectionDegrees,WindSpeedMPH,WindSpeedGustMPH,Humidity,HourlyPrecipIn,Conditions,Clouds,dailyrainin,SoftwareType,DateUTC
2013-05-02 00:09:00,57.2,53.0,30.45,ESE,106,0.0,-999.0,85,-99.99,,,0.00,weatherlink.com 1.10,2013-05-02 04:09:00,
2013-05-02 00:24:00,57.3,52.0,30.45,SSW,198,0.0,-999.0,83,-99.99,,,0.00,weatherlink.com 1.10,2013-05-02 04:24:00,
2013-05-02 00:39:00,57.4,52.0,30.45,WNW,284,0.0,-999.0,83,-99.99,,,0.00,weatherlink.com 1.10,2013-05-02 04:39:00,
2013-05-02 00:54:00,57.4,52.0,30.45,WNW,288,0.0,-999.0,82,-99.99,,,0.00,weatherlink.com 1.10,2013-05-02 04:54:00,
2013-05-02 01:09:00,57.4,52.0,30.45,NW,320,0.0,-999.0,82,-99.99,,,0.00,weatherlink.com 1.10,2013-05-02 05:09:00,
2013-05-02 01:24:00,57.4,52.0,30.45,NE,40,0.0,-999.0,81,-99.99,,,0.00,weatherlink.com 1.10,2013-05-02 05:24:00,
2013-05-02 01:39:00,57.4,52.0,30.44,South,175,0.0,-999.0,81,-99.99,,,0.00,weatherlink.com 1.10,2013-05-02 05:39:00,
2013-05-02 01:54:00,57.4,52.0,30.44,SSE,168,4.0,-999.0,82,-99.99,,,0.00,weatherlink.com 1.10,2013-05-02 05:54:00,
2013-05-02 02:09:00,57.2,51.0,30.44,South,171,0.0,-999.0,81,-99.99,,,0.00,weatherlink.com 1.10,2013-05-02 06:09:00,
2013-05-02 02:24:00,57.0,51.0,30.43,NNW,339,0.0,-999.0,80,-99.99,,,0.00,weatherlink.com 1.10,2013-05-02 06:24:00,
2013-05-02 02:39:00,56.9,51.0,30.43,North,9,0.0,-999.0,80,-99.99,,,0.00,weatherlink.com 1.10,2013-05-02 06:39:00,
2013-05-02 02:55:00,56.9,51.0,30.43,North,9,0.0,-999.0,80,-99.99,,,0.00,weatherlink.com 1.10,2013-05-02 06:55:00,
2013-05-02 03:10:00,56.6,49.0,30.43,WNW,297,0.0,-999.0,77,-99.99,,,0.00,weatherlink.com 1.10,2013-05-02 07:10:00,
2013-05-02 03:25:00,56.5,50.0,30.43,WSW,250,0.0,-999.0,78,-99.99,,,0.00,weatherlink.com 1.10,2013-05-02 07:25:00,
2013-05-02 03:40:00,56.3,50.0,30.43,SW,229,2.0,-999.0,79,-99.99,,,0.00,weatherlink.com 1.10,2013-05-02 07:40:00,
2013-05-02 03:55:00,55.9,51.0,30.43,SW,217,0.0,-999.0,84,-99.99,,,0.00,weatherlink.com 1.10,2013-05-02 07:55:00,
2013-05-02 04:10:00,55.1,51.0,30.43,SW,217,0.0,-999.0,87,-99.99,,,0.01,weatherlink.com 1.10,2013-05-02 08:10:00,
2013-05-02 04:25:00,54.4,51.0,30.43,WSW,238,0.0,-999.0,89,-99.99,,,0.01,weatherlink.com 1.10,2013-05-02 08:25:00,
2013-05-02 04:40:00,53.9,51.0,30.42,WSW,238,0.0,-999.0,90,-99.99,,,0.01,weatherlink.com 1.10,2013-05-02 08:40:00,
2013-05-02 04:55:00,53.6,51.0,30.43,West,267,0.0,-999.0,91,-99.99,,,0.01,weatherlink.com 1.10,2013-05-02 08:55:00,
2013-05-02 05:10:00,53.4,51.0,30.42,WNW,291,2.0,-999.0,91,-99.99,,,0.01,weatherlink.com 1.10,2013-05-02 09:10:00,
2013-05-02 05:25:00,53.4,50.0,30.42,NNW,335,0.0,-999.0,87,-99.99,,,0.01,weatherlink.com 1.10,2013-05-02 09:25:00,
2013-05-02 05:40:00,53.8,50.0,30.42,NNW,335,0.0,-999.0,86,-99.99,,,0.01,weatherlink.com 1.10,2013-05-02 09:40:00,
2013-05-02 05:55:00,54.0,50.0,30.42,NNW,333,0.0,-999.0,85,-99.99,,,0.01,weatherlink.com 1.10,2013-05-02 09:55:00,
2013-05-02 06:10:00,54.1,50.0,30.42,NNW,333,0.0,-999.0,86,-99.99,,,0.01,weatherlink.com 1.10,2013-05-02 10:10:00,
2013-05-02 06:25:00,54.1,51.0,30.43,NNW,333,0.0,-999.0,88,-99.99,,,0.01,weatherlink.com 1.10,2013-05-02 10:25:00,
2013-05-02 06:40:00,54.0,50.0,30.43,NNW,333,0.0,-999.0,86,-99.99,,,0.01,weatherlink.com 1.10,2013-05-02 10:40:00,
2013-05-02 06:55:00,54.1,51.0,30.43,NNW,333,0.0,-999.0,88,-99.99,,,0.01,weatherlink.com 1.10,2013-05-02 10:55:00,
2013-05-02 07:10:00,54.1,51.0,30.44,NNW,334,0.0,-999.0,90,-99.99,,,0.01,weatherlink.com 1.10,2013-05-02 11:10:00,
2013-05-02 07:25:00,53.9,51.0,30.44,NNW,333,0.0,-999.0,89,-99.99,,,0.01,weatherlink.com 1.10,2013-05-02 11:25:00,
2013-05-02 07:40:00,53.8,50.0,30.44,SSE,153,0.0,-999.0,88,-99.99,,,0.01,weatherlink.com 1.10,2013-05-02 11:40:00,
2013-05-02 07:55:00,54.1,51.0,30.45,NE,53,0.0,-999.0,88,-99.99,,,0.01,weatherlink.com 1.10,2013-05-02 11:55:00,
2013-05-02 08:10:00,54.5,51.0,30.45,NW,313,1.0,-999.0,88,-99.99,,,0.01,weatherlink.com 1.10,2013-05-02 12:10:00,
2013-05-02 08:25:00,54.7,51.0,30.46,NE,44,0.0,-999.0,87,-99.99,,,0.01,weatherlink.com 1.10,2013-05-02 12:25:00,
2013-05-02 08:40:00,54.8,51.0,30.46,NE,52,0.0,-999.0,87,-99.99,,,0.01,weatherlink.com 1.10,2013-05-02 12:40:00,
2013-05-02 08:55:00,54.9,51.0,30.46,South,185,0.0,-999.0,87,-99.99,,,0.01,weatherlink.com 1.10,2013-05-02 12:55:00,
2013-05-02 09:10:00,55.0,51.0,30.46,South,186,0.0,-999.0,87,-99.99,,,0.01,weatherlink.com 1.10,2013-05-02 13:10:00,
2013-05-02 09:25:00,55.0,51.0,30.46,South,186,0.0,-999.0,86,-99.99,,,0.01,weatherlink.com 1.10,2013-05-02 13:25:00,
2013-05-02 09:40:00,55.1,51.0,30.46,South,186,0.0,-999.0,87,-99.99,,,0.01,weatherlink.com 1.10,2013-05-02 13:40:00,
2013-05-02 09:55:00,55.3,52.0,30.46,South,186,0.0,-999.0,88,-99.99,,,0.01,weatherlink.com 1.10,2013-05-02 13:55:00,
2013-05-02 10:10:00,55.6,52.0,30.46,NW,313,2.0,-999.0,87,-99.99,,,0.01,weatherlink.com 1.10,2013-05-02 14:10:00,
2013-05-02 10:25:00,55.9,52.0,30.47,NW,311,0.0,-999.0,87,-99.99,,,0.01,weatherlink.com 1.10,2013-05-02 14:25:00,
2013-05-02 10:40:00,56.5,52.0,30.47,NNW,348,1.0,-999.0,86,-99.99,,,0.01,weatherlink.com 1.10,2013-05-02 14:40:00,
2013-05-02 10:55:00,56.9,53.0,30.47,West,275,0.0,-999.0,88,-99.99,,,0.01,weatherlink.com 1.10,2013-05-02 14:55:00,
2013-05-02 11:10:00,57.2,53.0,30.47,NW,315,0.0,-999.0,86,-99.99,,,0.01,weatherlink.com 1.10,2013-05-02 15:10:00,
2013-05-02 11:25:00,57.5,53.0,30.47,NW,315,0.0,-999.0,86,-99.99,,,0.01,weatherlink.com 1.10,2013-05-02 15:25:00,
2013-05-02 11:40:00,57.9,54.0,30.47,NW,315,0.0,-999.0,85,-99.99,,,0.01,weatherlink.com 1.10,2013-05-02 15:40:00,
2013-05-02 11:55:00,58.0,54.0,30.47,NW,315,1.0,-999.0,85,-99.99,,,0.01,weatherlink.com 1.10,2013-05-02 15:55:00,
2013-05-02 12:10:00,58.5,54.0,30.47,NNW,346,0.0,-999.0,85,-99.99,,,0.01,weatherlink.com 1.10,2013-05-02 16:10:00,
2013-05-02 12:25:00,58.7,54.0,30.47,NE,34,4.0,-999.0,85,-99.99,,,0.01,weatherlink.com 1.10,2013-05-02 16:25:00,
2013-05-02 12:40:00,58.9,54.0,30.46,NE,40,0.0,-999.0,85,-99.99,,,0.01,weatherlink.com 1.10,2013-05-02 16:40:00,
2013-05-02 12:55:00,59.2,55.0,30.46,NW,323,1.0,-999.0,85,-99.99,,,0.01,weatherlink.com 1.10,2013-05-02 16:55:00,
2013-05-02 13:11:00,59.3,55.0,30.46,SW,221,0.0,-999.0,85,-99.99,,,0.01,weatherlink.com 1.10,2013-05-02 17:11:00,
2013-05-02 13:26:00,59.5,54.0,30.46,South,190,0.0,-999.0,83,-99.99,,,0.01,weatherlink.com 1.10,2013-05-02 17:26:00,
2013-05-02 13:41:00,59.8,55.0,30.46,SSE,150,0.0,-999.0,83,-99.99,,,0.01,weatherlink.com 1.10,2013-05-02 17:41:00,
2013-05-02 13:56:00,59.9,55.0,30.45,SSE,165,0.0,-999.0,83,-99.99,,,0.01,weatherlink.com 1.10,2013-05-02 17:56:00,
2013-05-02 14:11:00,60.0,55.0,30.45,South,173,0.0,-999.0,84,-99.99,,,0.01,weatherlink.com 1.10,2013-05-02 18:11:00,
2013-05-02 14:26:00,60.4,55.0,30.45,SSE,153,2.0,-999.0,83,-99.99,,,0.01,weatherlink.com 1.10,2013-05-02 18:26:00,
2013-05-02 14:41:00,60.8,55.0,30.45,South,177,0.0,-999.0,81,-99.99,,,0.01,weatherlink.com 1.10,2013-05-02 18:41:00,
2013-05-02 14:56:00,61.3,55.0,30.44,SSE,158,0.0,-999.0,80,-99.99,,,0.01,weatherlink.com 1.10,2013-05-02 18:56:00,
2013-05-02 15:11:00,61.0,55.0,30.44,SSE,161,0.0,-999.0,80,-99.99,,,0.01,weatherlink.com 1.10,2013-05-02 19:11:00,
2013-05-02 15:26:00,61.0,56.0,30.44,South,184,0.0,-999.0,83,-99.99,,,0.01,weatherlink.com 1.10,2013-05-02 19:26:00,
2013-05-02 15:41:00,61.3,55.0,30.43,SE,146,0.0,-999.0,81,-99.99,,,0.01,weatherlink.com 1.10,2013-05-02 19:41:00,
2013-05-02 15:56:00,61.8,56.0,30.43,ESE,119,0.0,-999.0,82,-99.99,,,0.01,weatherlink.com 1.10,2013-05-02 19:56:00,
2013-05-02 16:11:00,61.3,55.0,30.43,SSW,199,3.0,-999.0,80,-99.99,,,0.01,weatherlink.com 1.10,2013-05-02 20:11:00,
2013-05-02 16:26:00,61.1,55.0,30.42,SSE,150,0.0,-999.0,81,-99.99,,,0.01,weatherlink.com 1.10,2013-05-02 20:26:00,
2013-05-02 16:41:00,61.1,55.0,30.42,South,169,0.0,-999.0,81,-99.99,,,0.01,weatherlink.com 1.10,2013-05-02 20:41:00,
2013-05-02 16:56:00,60.9,55.0,30.42,SSE,159,2.0,-999.0,82,-99.99,,,0.01,weatherlink.com 1.10,2013-05-02 20:56:00,
2013-05-02 17:11:00,61.0,55.0,30.42,SSE,162,4.0,-999.0,81,-99.99,,,0.01,weatherlink.com 1.10,2013-05-02 21:11:00,
2013-05-02 17:26:00,61.1,56.0,30.41,SSE,163,1.0,-999.0,82,-99.99,,,0.01,weatherlink.com 1.10,2013-05-02 21:26:00,
2013-05-02 17:41:00,60.7,55.0,30.41,SSE,151,2.0,-999.0,81,-99.99,,,0.01,weatherlink.com 1.10,2013-05-02 21:41:00,
2013-05-02 17:56:00,60.8,55.0,30.41,SE,140,0.0,-999.0,81,-99.99,,,0.01,weatherlink.com 1.10,2013-05-02 21:56:00,
2013-05-02 18:11:00,60.7,55.0,30.41,SSE,168,0.0,-999.0,82,-99.99,,,0.01,weatherlink.com 1.10,2013-05-02 22:11:00,
2013-05-02 18:26:00,60.8,55.0,30.40,SSW,202,0.0,-999.0,81,-99.99,,,0.01,weatherlink.com 1.10,2013-05-02 22:26:00,
2013-05-02 18:41:00,60.9,55.0,30.40,SSE,158,0.0,-999.0,80,-99.99,,,0.01,weatherlink.com 1.10,2013-05-02 22:41:00,
2013-05-02 18:56:00,60.9,55.0,30.39,South,171,0.0,-999.0,81,-99.99,,,0.01,weatherlink.com 1.10,2013-05-02 22:56:00,
2013-05-02 19:11:00,60.8,55.0,30.40,South,172,0.0,-999.0,82,-99.99,,,0.01,weatherlink.com 1.10,2013-05-02 23:11:00,
2013-05-02 19:26:00,60.5,55.0,30.40,SSE,156,0.0,-999.0,81,-99.99,,,0.01,weatherlink.com 1.10,2013-05-02 23:26:00,
2013-05-02 19:41:00,60.4,55.0,30.40,SSE,156,0.0,-999.0,82,-99.99,,,0.01,weatherlink.com 1.10,2013-05-02 23:41:00,
2013-05-02 19:56:00,60.1,55.0,30.41,SSE,159,0.0,-999.0,82,-99.99,,,0.01,weatherlink.com 1.10,2013-05-02 23:56:00,
2013-05-02 20:46:00,59.2,55.0,30.41,SSE,159,0.0,-999.0,86,-99.99,,,0.01,weatherlink.com 1.10,2013-05-03 00:46:00,
2013-05-02 20:56:00,59.0,55.0,30.41,SSE,159,0.0,-999.0,86,-99.99,,,0.01,weatherlink.com 1.10,2013-05-03 00:56:00,
2013-05-02 21:11:00,58.7,55.0,30.41,SSE,159,0.0,-999.0,86,-99.99,,,0.01,weatherlink.com 1.10,2013-05-03 01:11:00,
2013-05-02 21:26:00,58.4,55.0,30.42,SSE,159,0.0,-999.0,87,-99.99,,,0.01,weatherlink.com 1.10,2013-05-03 01:26:00,
2013-05-02 21:41:00,58.2,54.0,30.42,SSE,159,0.0,-999.0,87,-99.99,,,0.01,weatherlink.com 1.10,2013-05-03 01:41:00,
2013-05-02 21:56:00,58.1,54.0,30.43,SSE,159,0.0,-999.0,87,-99.99,,,0.01,weatherlink.com 1.10,2013-05-03 01:56:00,
2013-05-02 22:11:00,58.0,55.0,30.43,SSE,159,0.0,-999.0,88,-99.99,,,0.01,weatherlink.com 1.10,2013-05-03 02:11:00,
2013-05-02 22:26:00,57.8,54.0,30.43,SSE,159,0.0,-999.0,88,-99.99,,,0.01,weatherlink.com 1.10,2013-05-03 02:26:00,
2013-05-02 22:41:00,57.6,54.0,30.43,SSW,209,0.0,-999.0,87,-99.99,,,0.01,weatherlink.com 1.10,2013-05-03 02:41:00,
2013-05-02 22:56:00,57.5,54.0,30.42,South,189,0.0,-999.0,87,-99.99,,,0.01,weatherlink.com 1.10,2013-05-03 02:56:00,
2013-05-02 23:11:00,57.5,54.0,30.42,South,189,0.0,-999.0,87,-99.99,,,0.01,weatherlink.com 1.10,2013-05-03 03:11:00,
2013-05-02 23:26:00,57.3,54.0,30.42,South,189,0.0,-999.0,87,-99.99,,,0.01,weatherlink.com 1.10,2013-05-03 03:26:00,
2013-05-02 23:41:00,57.0,53.0,30.41,South,189,0.0,-999.0,87,-99.99,,,0.01,weatherlink.com 1.10,2013-05-03 03:41:00,
2013-05-02 23:56:00,56.7,54.0,30.41,South,189,0.0,-999.0,89,-99.99,,,0.01,weatherlink.com 1.10,2013-05-03 03:56:00,